TimeAST,TemperatureF,Dew PointF,Humidity,Sea Level PressureIn,VisibilityMPH,Wind Direction,Wind SpeedMPH,Gust SpeedMPH,PrecipitationIn,Events,Conditions,WindDirDegrees,DateUTC
12:00 AM,55.4,51.8,88,30.40,15.0,SSW,9.2,-,N/A,,Mostly Cloudy,200,2012-11-13 04:00:00
1:00 AM,55.4,50.0,82,30.38,15.0,South,9.2,-,N/A,,Clear,180,2012-11-13 05:00:00
2:00 AM,56,50,75,30.37,15,SSW,9.2,,,,,200,2012-11-13 06:00:00
2:00 AM,57.2,50.0,77,30.37,15.0,SSW,9.2,-,N/A,,Clear,200,2012-11-13 06:00:00
3:00 AM,57.2,48.2,72,30.36,15.0,SSW,6.9,-,N/A,,Clear,210,2012-11-13 07:00:00
4:00 AM,55.4,50.0,82,30.35,15.0,SW,10.4,-,N/A,,Clear,230,2012-11-13 08:00:00
5:00 AM,57.2,50.0,77,30.33,15.0,WSW,9.2,-,N/A,,Mostly Cloudy,250,2012-11-13 09:00:00
6:00 AM,57.2,51.8,82,30.31,15.0,WSW,9.2,-,N/A,,Scattered Clouds,250,2012-11-13 10:00:00
7:00 AM,57.2,51.8,82,30.29,15.0,South,11.5,25.3,N/A,,Partly Cloudy,180,2012-11-13 11:00:00
8:00 AM,58,52,75,30.30,15,SW,13.8,,,,Partly Cloudy,220,2012-11-13 12:00:00
8:00 AM,59.0,51.8,77,30.29,15.0,SSW,15.0,21.9,N/A,,Mostly Cloudy,210,2012-11-13 12:00:00
9:00 AM,60.8,53.6,77,30.29,15.0,SSW,11.5,19.6,N/A,,Partly Cloudy,200,2012-11-13 13:00:00
10:00 AM,64.4,53.6,68,30.26,15.0,South,12.7,18.4,N/A,,Mostly Cloudy,190,2012-11-13 14:00:00
11:00 AM,68.0,53.6,60,30.24,15.0,South,12.7,25.3,N/A,,Mostly Cloudy,190,2012-11-13 15:00:00
12:00 PM,68.0,55.4,64,30.21,15.0,SSW,16.1,24.2,N/A,,Mostly Cloudy,200,2012-11-13 16:00:00
1:00 PM,69.8,53.6,56,30.19,15.0,SSW,19.6,31.1,N/A,,Overcast,200,2012-11-13 17:00:00
2:00 PM,69,54,49,30.18,15,SSW,17.3,,,,Overcast,210,2012-11-13 18:00:00
2:00 PM,69.8,53.6,56,30.18,15.0,SSW,15.0,27.6,N/A,,Overcast,200,2012-11-13 18:00:00
3:00 PM,68.0,55.4,64,30.16,15.0,South,17.3,27.6,N/A,,Overcast,190,2012-11-13 19:00:00
4:00 PM,66.2,57.2,73,30.17,15.0,SSW,23.0,29.9,N/A,,Overcast,200,2012-11-13 20:00:00
5:00 PM,66.2,57.2,73,30.16,15.0,SSW,16.1,23.0,N/A,,Mostly Cloudy,200,2012-11-13 21:00:00
6:00 PM,64.4,57.2,77,30.16,15.0,South,15.0,23.0,N/A,,Overcast,190,2012-11-13 22:00:00
6:41 PM,-9999,-9999,N/A,-9999,15.0,SSW,10.4,-,N/A,Rain,Light Rain Showers,210,2012-11-13 22:41:00
7:00 PM,64.4,57.2,77,30.18,15.0,SW,6.9,-,N/A,Rain,Light Rain Showers,230,2012-11-13 23:00:00
8:00 PM,54,53,93,30.22,15,West,13.8,,,Rain,Light Rain Showers,280,2012-11-14 00:00:00
8:00 PM,53.6,51.8,94,30.21,15.0,West,12.7,19.6,N/A,,Overcast,280,2012-11-14 00:00:00
8:13 PM,-9999,-9999,N/A,-9999,15.0,WSW,9.2,-,N/A,Rain,Light Rain Showers,250,2012-11-14 00:13:00
9:00 PM,53.6,51.8,94,30.26,12.0,West,12.7,-,N/A,Rain,Light Rain Showers,270,2012-11-14 01:00:00
9:22 PM,-9999,-9999,N/A,-9999,12.0,WNW,13.8,-,N/A,Rain,Light Rain Showers,290,2012-11-14 01:22:00
10:00 PM,48.2,46.4,93,30.30,6.0,WNW,9.2,-,N/A,Rain,Light Rain Showers,290,2012-11-14 02:00:00
11:00 PM,44.6,44.6,100,30.32,6.0,NW,9.2,-,N/A,Rain,Light Rain Showers,310,2012-11-14 03:00:00